Other Public Products
Issued by NWS Charleston, SC

Home | Current Version | Previous Version | Text Only | Print | Product List | Glossary On
Versions: 1 2 3 4 5 6 7 8 9 10 11 12 13 14 15 16 17 18 19 20 21 22 23 24 25 26 27 28 29 30 31 32 33 34 35 36 37 38 39 40 41 42 43 44 45 46 47 48 49 50
462
FPUS82 KCHS 270027
OPUCHS

TEST...KCHS/KSAV Gateway Observations...TEST
National Weather Service Charleston SC
700 PM EST SUN FEB 26 2017

NOTE: "fair" indicates few or no clouds below 12,000 feet with no
significant weather and/or obstructions to visibility.

SCZ050-WAZ558-NCZ071-TXZ119-213-PAZ071-DCZ001-FLZ074-172-MI076-
NYZ176-178-MAZ016-IL014-TNZ027-NJZ106-GAZ044-MD014-270100-
...Gateway Observations for Charleston International...

CITY           SKY/WX    TMP DP  RH WIND       PRES   REMARKS
Chas Airport   CLEAR     53  34  48 S5        30.25R
6HR MIN TEMP:  53; 6HR MAX TEMP:  68;

Seattle        LGT RAIN  40  38  93 NW5       29.70R FOG     WCI  37
6HR MIN TEMP:  37; 6HR MAX TEMP:  41; 6HR PCP:  0.09;

Charlotte      PTCLDY    54  13  19 S6        30.22R
6HR MIN TEMP:  52; 6HR MAX TEMP:  58;

Dallas DFW     CLOUDY    62  53  72 S8        29.86R
6HR MIN TEMP:  60; 6HR MAX TEMP:  63;

Dallas Love    CLOUDY    62  51  67 S9        29.88S
6HR MIN TEMP:  59; 6HR MAX TEMP:  63;

Philladelphia  PTCLDY    41  17  38 NW9       30.23R
6HR MIN TEMP:  41; 6HR MAX TEMP:  44;

Wash National  CLEAR     45  18  34 NW7       30.24R
6HR MIN TEMP:  44; 6HR MAX TEMP:  50;

Baltimore      CLEAR     40  19  43 CALM      30.23R
6HR MIN TEMP:  39; 6HR MAX TEMP:  46;

Miami          PTCLDY    76  65  68 NE12G20   30.12R
6HR MIN TEMP:  76; 6HR MAX TEMP:  83;

Detroit        PTCLDY    40  21  46 SW18G28   30.03R WCI  31
6HR MIN TEMP:  37; 6HR MAX TEMP:  43;

Newark         MOCLDY    39  16  39 W16       30.18R WCI  30
6HR MIN TEMP:  39; 6HR MAX TEMP:  45;

Laguardia      PTCLDY    42  17  36 W15       30.16R
6HR MIN TEMP:  42; 6HR MAX TEMP:  45;

J F K          PTCLDY    40  19  43 W20G28    30.18R WCI  30
6HR MIN TEMP:  40; 6HR MAX TEMP:  45;

Boston Logan   PTCLDY    36  14  40 W18G24    30.05R WCI  26
6HR MIN TEMP:  36; 6HR MAX TEMP:  43;

Ft. Lauderdale MOCLDY    75  65  70 NE14G23   30.12R
6HR MIN TEMP:  75; 6HR MAX TEMP:  83;

Chicago O`Hare MOCLDY    46  21  37 SW13G20   29.95R
6HR MIN TEMP:  43; 6HR MAX TEMP:  49;

Chicago Midway MOCLDY    46  20  35 SW9       29.97R
6HR MIN TEMP:  44; 6HR MAX TEMP:  49;

Houston Bush   MOCLDY    69  60  73 SE20      29.94S
6HR MIN TEMP:  69; 6HR MAX TEMP:  75;

Houston Hobby  CLOUDY    70  60  70 SE12G21   29.94R
6HR MIN TEMP:  70; 6HR MAX TEMP:  75; 6HR PCP: TRACE;

Nashville      CLOUDY    51  19  28 SE5       30.14F
6HR MIN TEMP:  49; 6HR MAX TEMP:  57;

Atlanta        PTCLDY    59  15  18 CALM      30.20R
6HR MIN TEMP:  56; 6HR MAX TEMP:  63;


$$

GAZ044-118-TXZ119-213-NCZ071-DCZ001-MDZ014-506-PAZ021-071-NJZ106-
NYZ176-178-MAZ106-OHZ011-021-055-MIZ076-KYZ091-ILZ014-INZ047-
MNZ060-ONZ431-270100-
...Gateway Observations for Savannah International...

CITY           SKY/WX    TMP DP  RH WIND       PRES   REMARKS
Savannah Arpt  CLEAR     57  34  41 S6        30.24R
6HR MIN TEMP:  57; 6HR MAX TEMP:  69;

Atlanta        PTCLDY    59  15  18 CALM      30.20R
6HR MIN TEMP:  56; 6HR MAX TEMP:  63;

Charlotte      PTCLDY    54  13  19 S6        30.22R
6HR MIN TEMP:  52; 6HR MAX TEMP:  58;

Dallas DFW     CLOUDY    62  53  72 S8        29.86R
6HR MIN TEMP:  60; 6HR MAX TEMP:  63;

Houston Bush   MOCLDY    69  60  73 SE20      29.94S
6HR MIN TEMP:  69; 6HR MAX TEMP:  75;

Wash National  CLEAR     45  18  34 NW7       30.24R
6HR MIN TEMP:  44; 6HR MAX TEMP:  50;

Wash Dulles    CLEAR     43  15  32 NW7       30.23R
6HR MIN TEMP:  42; 6HR MAX TEMP:  48;

Baltimore      CLEAR     40  19  43 CALM      30.23R
6HR MIN TEMP:  39; 6HR MAX TEMP:  46;

Philadelphia   PTCLDY    41  17  38 NW9       30.23R
6HR MIN TEMP:  41; 6HR MAX TEMP:  44;

Newark         MOCLDY    39  16  39 W16       30.18R WCI  30
6HR MIN TEMP:  39; 6HR MAX TEMP:  45;

Laguardia      PTCLDY    42  17  36 W15       30.16R
6HR MIN TEMP:  42; 6HR MAX TEMP:  45;

J F K          PTCLDY    40  19  43 W20G28    30.18R WCI  30
6HR MIN TEMP:  40; 6HR MAX TEMP:  45;

Boston         PTCLDY    36  14  40 W18G24    30.05R WCI  26
6HR MIN TEMP:  36; 6HR MAX TEMP:  43;

Pittsburg      PTCLDY    37  15  40 SW7       30.15R WCI  32
6HR MIN TEMP:  32; 6HR MAX TEMP:  39;

Akron          PTCLDY    36  19  50 SW12      30.13R WCI  28
6HR MIN TEMP:  34; 6HR MAX TEMP:  40;

Cleveland      PTCLDY    40  18  41 S15       30.12R WCI  32
6HR MIN TEMP:  36; 6HR MAX TEMP:  43;

Cincinnati     MOCLDY    42  16  34 S6        30.15S
6HR MIN TEMP:  41; 6HR MAX TEMP:  47;

Columbus       MOCLDY    38  20  49 S6        30.17S WCI  33
Detroit        PTCLDY    40  21  46 SW18G28   30.03R WCI  31
6HR MIN TEMP:  37; 6HR MAX TEMP:  43;

Chicago O`Hare MOCLDY    46  21  37 SW13G20   29.95R
6HR MIN TEMP:  43; 6HR MAX TEMP:  49;

Minneapolis    PTCLDY    32  13  45 W9        29.89R WCI  24
6HR MIN TEMP:  32; 6HR MAX TEMP:  40;

Indianapolis   CLOUDY    43  16  33 SW15G29   30.12R
6HR MIN TEMP:  42; 6HR MAX TEMP:  47;

Toronto Canada CLOUDY    32  16  51 SW21      29.99F WCI  20

$$




USA.gov is the U.S. government's official web portal to all federal, state and local government web resources and services.